FW0705 Weather Reports


Display with metric or nautical units.
time (UTC)temp
F
wind
direction
speed
MPH
gust
MPH
rain 1hr
in
rain 24hr
in
rain mn
in
humidity
%
barometer
mb
20260502160200 62 285 1.0 4.0 0.00 0.00 0.00 65 1012.7
20260502150158 63 244 1.0 5.0 0.00 0.00 0.00 61 1013.4
20260502130155 63 285 2.0 7.0 0.00 0.00 0.00 65 1014.4
20260502123155 62 283 2.0 7.0 0.00 0.00 0.00 67 1014.7
20260502120155 60 227 1.0 5.0 0.00 0.00 0.00 71 1015.2
20260502114557 59 24 1.0 6.0 0.00 0.00 0.00 74 1015.5
20260502110155 58 355 1.0 6.0 0.00 0.00 0.00 75 1015.8
20260502103157 57 246 1.0 6.0 0.00 0.00 0.00 79 1015.9
20260502100155 56 269 2.0 8.0 0.00 0.00 0.00 77 1016.1
20260502090154 54 144 1.0 3.0 0.00 0.00 0.00 81 1016.3
20260502070141 49 271 0.0 0.0 0.00 0.00 0.00 94 1016.7
20260502063141 49 271 0.0 0.0 0.00 0.00 0.00 94 1016.5
20260502060142 48 272 0.0 2.0 0.00 0.00 0.00 95 1016.4
20260502053140 48 272 0.0 2.0 0.00 0.00 0.00 94 1016.5
20260502050136 47 272 1.0 3.0 0.00 0.00 0.00 94 1016.5
20260502043137 47 309 0.0 2.0 0.00 0.00 0.00 94 1016.5
20260502040138 47 308 0.0 1.0 0.00 0.00 0.00 94 1016.7
20260502033134 47 308 0.0 4.0 0.00 0.00 0.00 94 1016.7
20260502031539 48 273 0.0 3.0 0.00 0.00 0.00 93 1016.6
20260502023136 49 272 1.0 4.0 0.00 0.00 0.00 93 1016.8
20260502020136 49 279 0.0 3.0 0.00 0.00 0.00 93 1017.0
20260502013135 50 278 0.0 4.0 0.00 0.00 0.00 93 1017.0
20260502010134 51 265 1.0 4.0 0.00 0.00 0.00 93 1017.4
20260502004528 51 258 1.0 4.0 0.00 0.00 0.00 93 1017.7
20260502000134 52 222 1.0 3.0 0.00 0.00 0.00 92 1017.8
20260501233140 53 311 1.0 5.0 0.00 0.00 0.00 92 1018.1
20260501231537 53 280 1.0 6.0 0.00 0.00 0.00 92 1018.2
20260501223131 53 302 0.0 3.0 0.00 0.00 0.00 92 1018.0
20260501220133 53 301 0.0 3.0 0.00 0.00 0.00 91 1018.2
20260501213130 54 300 1.0 4.0 0.00 0.00 0.00 91 1018.2
20260501210130 54 298 2.0 7.0 0.00 0.00 0.00 90 1018.4
20260501203130 55 300 0.0 4.0 0.00 0.00 0.00 89 1018.3
20260501200129 55 297 1.0 7.0 0.00 0.00 0.00 87 1018.4
20260501193130 56 302 2.0 8.0 0.00 0.00 0.00 82 1018.3
20260501190130 57 308 2.0 5.0 0.00 0.00 0.00 78 1018.2
20260501183130 58 313 1.0 5.0 0.00 0.00 0.00 76 1018.2
20260501181522 59 318 1.0 8.0 0.00 0.00 0.00 75 1018.2
20260501173130 61 324 1.0 8.0 0.00 0.00 0.00 74 1018.1
20260501170130 63 281 2.0 9.0 0.00 0.00 0.00 69 1017.8
20260501164522 64 248 3.0 11.0 0.00 0.00 0.00 67 1017.7